DIWATA 2B (43678 NORAD) Tracking and Keplerian Element Data

This shows tracking and keplerian element data for the satellite.

Feedback or suggestion? Click here.




ElementValue
Catalog43678
NameDIWATA 2B
Epoch Orbit211
Epoch Day316.44015344
Epoch Year2018
RAAN66.901
Inclination97.8365
Eccentricity0.0008888
Argument of Perigee312.5307
Mean Anonmoly47.5141
Mean Motion14.9150573
Decay Rate-6.1E-07
L11 43678U 18084H 18316.44015344 -.00000061 00000-0 -42266-6 0 9998
L22 43678 97.8365 66.9010 0008888 312.5307 47.5141 14.91505730 2114

Live tracking and technical data element details for DIWATA 2B (NORAD 43678). DIWATA 2B can be tracked NOW for your location showing map with azimuth and elevation plus other details from your city location.

Track the satellite on the map from your city or location and see movement details for azimuth, elevation, latitude, longitude, range, height, and movement on the map or in text.







IsCatalogInMostPopularTable: catalog: 43678, numindb: 4
Update: records affected: 1



GetName: 43678 DIWATA 2B

Hit Count: updated at: Tue, 13 Nov 2018 06:32:12 GMT